Regional Weather Roundup
Issued by NWS

Home | Current Version | Previous Version | Graphics & Text | Print | Product List | Glossary On
Versions: 1 2 3 4 5 6 7 8 9 10 11 12 13 14 15 16 17 18 19 20 21 22 23 24 25 26 27 28 29 30 31 32 33 34 35 36 37 38 39 40 41 42 43 44 45 46 47 48 49 50
000
ASUS43 KBIS 251920
RWRND

NORTH DAKOTA REGIONAL WEATHER ROUNDUP
NATIONAL WEATHER SERVICE BISMARCK ND
200 PM CDT FRI JUL 25 2014

NOTE: "FAIR" INDICATES FEW OR NO CLOUDS BELOW 12,000 FEET WITH NO
SIGNIFICANT WEATHER AND/OR OBSTRUCTIONS TO VISIBILITY.


NDZ001>003-009>011-017-252000-
NORTHWEST NORTH DAKOTA

CITY           SKY/WX    TMP DP  RH WIND       PRES   REMARKS
WILLISTON      SUNNY     79  42  26 W13G24    29.81F
MINOT          SUNNY     75  46  35 W13       29.82S
MINOT AFB      SUNNY     74  52  45 W15G21    29.80F
$$

NDZ018>021-031>035-040>046-252000-
SOUTHWEST NORTH DAKOTA

CITY           SKY/WX    TMP DP  RH WIND       PRES   REMARKS
BISMARCK       SUNNY     81  46  29 NW9       29.85F
DICKINSON      SUNNY     76  42  29 W9        29.88F
GARRISON         N/A     75  50  41 W10G20    29.83F
HETTINGER ARPT SUNNY     77  43  29 W7        29.92F
$$

NDZ004>008-012>016-024-026-027-054-252000-
NORTHEAST NORTH DAKOTA

CITY           SKY/WX    TMP DP  RH WIND       PRES   REMARKS
GRAND FORKS    PTSUNNY   79  69  71 S7        29.73F
GRND FRKS AFB  CLOUDY    77  68  75 W10       29.75S
DEVILS LAKE    SUNNY     75  52  43 NW16      29.78F
$$

NDZ022-023-025-028>030-036>039-047>053-252000-
SOUTHEAST NORTH DAKOTA

CITY           SKY/WX    TMP DP  RH WIND       PRES   REMARKS
FARGO          PTSUNNY   79  67  66 CALM      29.75F
JAMESTOWN      SUNNY     78  48  34 NW17G26   29.81S
$$



USA.gov is the U.S. government's official web portal to all federal, state and local government web resources and services.